Regional Weather Roundup
Issued by NWS

Home | Current Version | Previous Version | Text Only | Print | Product List | Glossary On
Versions: 1 2 3 4 5 6 7 8 9 10 11 12 13 14 15 16 17 18 19 20 21 22 23 24 25 26 27 28 29 30 31 32 33 34 35 36 37 38 39 40 41 42 43 44 45 46 47 48 49 50
747
ASUS43 KDMX 022201
RWRIA

WEATHER ROUNDUP FOR IOWA
NATIONAL WEATHER SERVICE DES MOINES IA
400 PM CST FRI DEC 02 2016

NOTE: "FAIR" INDICATES FEW OR NO CLOUDS BELOW 12,000 FEET WITH NO
SIGNIFICANT WEATHER AND/OR OBSTRUCTIONS TO VISIBILITY.

* - THESE STATIONS ARE NOT NWS STATIONS...THUS NOT UNDER NWS
QUALITY CONTROL.  THEY ALSO DO NOT REPORT WEATHER SUCH
AS PRECIPITATION OR FOG.

IAZ001>003-012>014-020>022-031>034-043>046-022300-
   NORTHWEST IOWA

CITY           SKY/WX    TMP DP  RH WIND       PRES   REMARKS
CARROLL *      CLOUDY    36  34  93 N6        30.28R WCI  31
CHEROKEE *     CLOUDY    35  29  81 N3        30.29S
DENISON *      CLOUDY    36  32  87 CALM      30.27R
LE MARS *      CLOUDY    36  30  80 CALM      30.30S
ORANGE CITY *  CLOUDY    34  30  86 CALM      30.28S
SHELDON *      CLOUDY    34  28  80 W8        30.27S WCI  27
SIOUX CITY     CLOUDY    39  30  70 NW3       30.30R
SPENCER        CLOUDY    33  25  72 W10       30.29S WCI  25
STORM LAKE *     N/A     34  28  80 N7        30.27F WCI  28
$$

IAZ055>058-069>071-079>083-090>094-022300-
   SOUTHWEST IOWA

CITY           SKY/WX    TMP DP  RH WIND       PRES   REMARKS
ATLANTIC *     CLOUDY    37  30  75 W6        30.30R WCI  33
AUDUBON *      CLOUDY    37  30  75 W3        30.29S
CLARINDA *       N/A     43  30  61 NW7       30.31S
COUNCIL BLFS * MOCLDY    39  30  70 N9        30.29S WCI  33
CRESTON *      CLEAR     39  30  70 NW12      30.30R WCI  32
HARLAN  *      CLOUDY    37  30  75 W8        30.33R WCI  31
LAMONI         CLEAR     42  30  62 W7        30.28R
RED OAK *      PTCLDY    39  32  75 N9        30.30R WCI  33
SHENANDOAH *   CLEAR     43  30  61 N7        30.30S
$$

IAZ047>049-059>061-072>074-084-022300-
   CENTRAL IOWA

CITY           SKY/WX    TMP DP  RH WIND       PRES   REMARKS
AMES           CLOUDY    37  32  82 NW8       30.29R WCI  31
ANKENY *       CLOUDY    37  36  93 N6        30.30R WCI  33
BOONE *        CLOUDY    36  32  87 N7        30.27S WCI  30
CHARITON *       N/A     39  32  75 NW7       30.29R WCI  34
DES MOINES     CLOUDY    40  31  70 NW7       30.29R
GRINNELL*      CLOUDY    37  30  77 N7        30.27F WCI  31
KNOXVILLE *    CLOUDY    39  30  70 CALM      30.28R
MARSHALLTOWN   CLOUDY    35  29  78 N10       30.27S WCI  27
NEWTON *       CLOUDY    37  30  75 N9        30.27R WCI  31
PELLA *        CLOUDY    39  32  76 N3        30.30R
PERRY *        CLOUDY    36  36  99 N7        30.29R WCI  30
$$

IAZ004>006-015-016-023>025-035-036-022300-
   NORTH CENTRAL IOWA

CITY           SKY/WX    TMP DP  RH WIND       PRES   REMARKS
ALGONA *       CLOUDY    34  25  69 NW10G18   30.29S WCI  26
CLARION *      CLOUDY    34  28  80 NW14      30.29S WCI  24
ESTHERVILLE    CLOUDY    30  25  81 NW7       30.29R WCI  23
FORT DODGE *   CLOUDY    36  27  69 NW5       30.29F WCI  32
MASON CITY     CLOUDY    31  23  72 NW7       30.31R WCI  24
WEBSTER CITY * CLOUDY    36  30  80 NW10      30.27S WCI  28
IOWA FALLS *   CLOUDY    35  30  83 NW8       30.29F WCI  28
$$

IAZ007>011-017>019-026>030-037>042-050>054-066-022300-
   NORTHEAST IOWA

CITY           SKY/WX    TMP DP  RH WIND       PRES   REMARKS
CEDAR RAPIDS   CLOUDY    35  28  75 N14       30.26F WCI  26
CHARLES CITY * CLOUDY    32  25  74 W7        30.30R WCI  26
CLINTON *      CLOUDY    35  28  75 W13       30.28R WCI  26
DECORAH *      CLOUDY    30  23  74 NW10      30.26R WCI  21
DUBUQUE        CLOUDY    33  24  69 W12       30.27R WCI  24
MONTICELLO *   CLOUDY    34  25  69 NW9       30.27F WCI  26
OELWEIN *      CLOUDY    32  27  80 W14       30.29R WCI  22
WATERLOO       CLOUDY    33  24  69 NW10      30.28S WCI  25
$$

IAZ064-065-067-068-078-022300-
   EAST CENTRAL IOWA

CITY           SKY/WX    TMP DP  RH WIND       PRES   REMARKS
DAVENPORT      CLOUDY    36  28  73 NW12      30.28R WCI  28
IOWA CITY      CLOUDY    38  27  64 NW9G18    30.29F WCI  31
MUSCATINE *    CLOUDY    39  28  65 N10       30.29S WCI  32
QUAD CITIES    CLOUDY    38  27  64 NW10      30.27R WCI  31
$$

IAZ062-063-075>077-085>089-095>099-022300-
   SOUTHEAST IOWA

CITY           SKY/WX    TMP DP  RH WIND       PRES   REMARKS
BURLINGTON     CLOUDY    40  33  76 N6        30.27S
FAIRFIELD *    CLOUDY    41  30  65 N9        30.28R
FORT MADISON * CLOUDY    43  34  70 NW6       30.29R
KEOKUK *       CLOUDY    43  32  65 N7        30.27S
OSKALOOSA *    CLOUDY    38  30  72 N6        30.29R WCI  34
CENTERVILLE *  MOCLDY    41  32  70 N8        30.29R
OTTUMWA        CLOUDY    41  30  65 N8        30.29R
WASHINGTON *   CLOUDY    39  30  70 NW8       30.30R WCI  34
$$

ABBREVIATIONS USED IN REMARKS
   TC - TEMPERATURES IN CELSIUS
  WCI - WIND CHILL INDEX
   HX - HEAT INDEX
  VSB - VISIBILITY
$$





USA.gov is the U.S. government's official web portal to all federal, state and local government web resources and services.